Weather History for KGEV - December, 2012

Change the Weather History Date:

Sunday, December 16, 2012

  Actual Average Record
Temperature  
Mean Temperature 45 °F -  
Max Temperature 50 °F 45 °F 67 °F (1971)
Min Temperature 40 °F 26 °F 2 °F (1989)
Degree Days  
Heating Degree Days 20    
Moisture  
Dew Point 43 °F    
Average Humidity 90    
Maximum Humidity 95    
Minimum Humidity 65    
Precipitation  
Precipitation 0.06 in - - ()
Sea Level Pressure  
Sea Level Pressure 29.96 in    
Wind  
Wind Speed 2 mph (SSE)    
Max Wind Speed 6 mph    
Max Gust Speed -    
Visibility 6 miles    
Events Rain    
Averages and records for this station are not official NWS values.
T = Trace of Precipitation, MM = Missing Value Source: NWS Daily Summary

Daily Weather History Graph

Daily Weather History Graph

Search for Another Location

Airport or City:

Trip Planner

Search our weather history database for the weather conditions in past years. The results will help you decide how hot, cold, wet, or windy it might be!

Date:

Astronomy

Dec. 16, 2012 Rise Set
Actual Time 7:31 AM EST 5:12 PM EST
Civil Twilight 7:02 AM EST 5:40 PM EST
Nautical Twilight 6:30 AM EST 6:13 PM EST
Astronomical Twilight 5:58 AM EST 6:44 PM EST
Moon 10:08 AM EST (12/16) 9:19 PM EST (12/16)
Length of Visible Light 10h 38m
Length of Day
9h 41m
Waxing Crescent, 16% of the Moon is Illuminated
Dec 16
Waxing Crescent
Dec 20
First Quarter
Dec 28
Full
Jan 4
Last Quarter
Jan 11
New

Hourly Weather History & Observations

Time (EST) Temp. Windchill Dew Point Humidity Pressure Visibility Wind Dir Wind Speed Gust Speed Precip Events Conditions
12:15 AM 42.1 °F 38.4 °F 32.4 °F 68% 30.02 in 10.0 mi SSE 5.8 mph - N/A   Overcast
12:35 AM 43.0 °F 40.3 °F 32.0 °F 65% 30.02 in 10.0 mi SSE 4.6 mph - N/A   Overcast
12:55 AM 42.8 °F 40.1 °F 32.4 °F 67% 30.02 in 10.0 mi SSE 4.6 mph - N/A   Mostly Cloudy
1:15 AM 43.0 °F 40.3 °F 32.0 °F 65% 30.02 in 10.0 mi South 4.6 mph - N/A   Scattered Clouds
1:35 AM 42.6 °F - 34.2 °F 72% 30.00 in 10.0 mi Calm Calm - N/A Rain Light Rain
1:55 AM 41.9 °F - 35.6 °F 78% 30.00 in 10.0 mi Calm Calm - N/A Rain Light Rain
2:15 AM 41.4 °F - 36.7 °F 83% 30.02 in 10.0 mi Calm Calm - N/A Rain Light Rain
2:55 AM 40.8 °F - 37.9 °F 89% 30.02 in 5.0 mi Calm Calm - 0.01 in Rain Light Rain
3:15 AM 40.3 °F - 38.3 °F 93% 30.01 in 3.0 mi Calm Calm - N/A   Overcast
3:55 AM 41.0 °F - 38.7 °F 91% 29.99 in 10.0 mi Calm Calm - N/A Rain Light Rain
4:35 AM 40.8 °F - 38.7 °F 92% 29.99 in 7.0 mi Calm Calm - N/A   Overcast
4:55 AM 40.5 °F - 38.7 °F 93% 29.99 in 2.0 mi Calm Calm - N/A   Overcast
5:15 AM 40.6 °F - 39.0 °F 94% 29.99 in 5.0 mi Calm Calm - N/A   Overcast
5:35 AM 41.0 °F - 39.2 °F 93% 29.99 in 10.0 mi Calm Calm - N/A   Overcast
5:55 AM 41.2 °F - 39.2 °F 93% 30.00 in 7.0 mi Calm Calm - N/A   Overcast
6:15 AM 41.4 °F - 39.6 °F 93% 30.00 in 7.0 mi Calm Calm - N/A   Overcast
6:35 AM 41.5 °F - 39.6 °F 93% 29.98 in 7.0 mi Calm Calm - N/A   Overcast
6:55 AM 41.4 °F - 39.2 °F 92% 29.99 in 7.0 mi Calm Calm - N/A   Overcast
7:15 AM 41.0 °F - 39.2 °F 93% 30.00 in 7.0 mi Calm Calm - N/A   Overcast
7:35 AM 41.0 °F - 38.8 °F 92% 30.00 in 7.0 mi Calm Calm - N/A   Overcast
7:55 AM 41.0 °F - 38.8 °F 92% 30.00 in 7.0 mi Calm Calm - N/A   Overcast
8:15 AM 40.5 °F - 38.5 °F 93% 30.01 in 4.0 mi Calm Calm - N/A Rain Light Rain
8:55 AM 41.2 °F - 39.4 °F 93% 30.00 in 4.0 mi Calm Calm - N/A Rain Rain
9:15 AM 43.2 °F 40.5 °F 41.4 °F 93% 29.99 in 2.5 mi East 4.6 mph - 0.04 in Rain Rain
9:35 AM 41.7 °F 39.8 °F 40.1 °F 94% 29.98 in 0.2 mi SSE 3.5 mph - 0.04 in Rain Light Rain
9:55 AM 43.2 °F - 41.5 °F 94% 30.00 in 3.0 mi Calm Calm - 0.04 in   Overcast
10:15 AM 44.2 °F - 42.6 °F 94% 30.00 in 2.0 mi Calm Calm - N/A Rain Light Rain
10:35 AM 44.2 °F - 42.8 °F 95% 29.99 in 3.0 mi Calm Calm - N/A Rain Light Rain
10:55 AM 44.1 °F 42.5 °F 42.4 °F 94% 29.98 in 0.5 mi ESE 3.5 mph - N/A Rain Rain
11:15 AM 45.5 °F - 43.7 °F 93% 29.98 in 1.8 mi Calm Calm - N/A Rain Light Rain
11:35 AM 45.5 °F - 43.9 °F 94% 29.99 in 2.5 mi Calm Calm - N/A Rain Light Rain
11:55 AM 45.1 °F 43.7 °F 43.7 °F 95% 29.98 in 0.2 mi SE 3.5 mph - N/A Rain Rain
12:35 PM 47.1 °F - 45.5 °F 94% 29.96 in 0.5 mi Calm Calm - N/A Rain Light Rain
12:55 PM 48.4 °F - 46.6 °F 93% 29.94 in 1.0 mi SSE 3.5 mph - N/A Rain Light Rain
1:15 PM 49.5 °F - 47.8 °F 94% 29.93 in 4.0 mi Calm Calm - N/A Rain Light Rain
1:35 PM 48.9 °F - 47.3 °F 94% 29.94 in 2.0 mi Calm Calm - N/A Rain Light Rain
1:55 PM 49.1 °F - 47.5 °F 94% 29.94 in 3.0 mi Calm Calm - N/A Rain Light Rain
2:15 PM 48.7 °F - 47.1 °F 94% 29.93 in 0.5 mi Calm Calm - N/A Rain Light Rain
2:35 PM 49.5 °F - 47.8 °F 94% 29.92 in 0.2 mi Calm Calm - N/A Rain Rain
2:55 PM 49.8 °F - 48.2 °F 94% 29.92 in 1.5 mi South 3.5 mph - N/A Rain Rain
3:15 PM 50.2 °F - 48.6 °F 94% 29.93 in 10.0 mi Calm Calm - N/A Rain Light Rain
3:35 PM 50.2 °F - 48.6 °F 94% 29.93 in 3.0 mi ESE 3.5 mph - N/A   Light Drizzle
3:55 PM 50.2 °F - 48.6 °F 94% 29.93 in 5.0 mi Calm Calm - N/A   Overcast
4:15 PM 50.2 °F - 48.6 °F 94% 29.91 in 10.0 mi South 3.5 mph - N/A   Overcast
4:35 PM 50.2 °F - 48.4 °F 94% 29.92 in 10.0 mi Calm Calm - N/A   Light Drizzle
5:15 PM 50.0 °F - 47.5 °F 91% 29.92 in 10.0 mi Calm Calm - N/A   Overcast
5:35 PM 50.9 °F - 46.8 °F 86% 29.92 in 10.0 mi Calm Calm - N/A Rain Rain
5:55 PM 49.5 °F - 46.8 °F 90% 29.92 in 10.0 mi SE 3.5 mph - N/A Rain Light Rain
6:15 PM 49.3 °F - 46.8 °F 91% 29.92 in 10.0 mi South 3.5 mph - N/A Rain Light Rain
6:35 PM 48.6 °F - 46.4 °F 92% 29.91 in 10.0 mi SSE 3.5 mph - N/A   Drizzle
6:55 PM 48.2 °F - 46.4 °F 93% 29.92 in 5.0 mi South 3.5 mph - N/A Rain Light Rain
7:15 PM 48.4 °F - 46.4 °F 93% 29.93 in 10.0 mi Calm Calm - N/A   Drizzle
7:35 PM 49.1 °F - 45.9 °F 89% 29.91 in 10.0 mi Calm Calm - N/A   Drizzle
7:55 PM 48.2 °F - 45.5 °F 90% 29.92 in 10.0 mi Calm Calm - N/A   Drizzle
8:15 PM 47.8 °F - 45.5 °F 92% 29.91 in 10.0 mi Calm Calm - N/A Rain Rain
8:35 PM 47.8 °F - 45.7 °F 92% 29.91 in 10.0 mi Calm Calm - N/A Rain Light Rain
8:55 PM 49.1 °F - 44.8 °F 85% 29.92 in 10.0 mi Calm Calm - N/A Rain Rain
9:15 PM 50.0 °F - 43.9 °F 79% 29.93 in 10.0 mi Calm Calm - N/A Rain Light Rain
9:35 PM 48.2 °F - 44.8 °F 88% 29.92 in 10.0 mi Calm Calm - N/A Rain Light Rain
9:55 PM 48.6 °F - 44.6 °F 86% 29.92 in 10.0 mi Calm Calm - N/A Rain Light Rain
10:15 PM 48.0 °F - 45.0 °F 89% 29.93 in 10.0 mi Calm Calm - N/A Rain Light Rain
10:35 PM 48.0 °F - 44.8 °F 89% 29.93 in 5.0 mi Calm Calm - N/A Rain Rain
10:55 PM 47.3 °F - 45.0 °F 92% 29.93 in 7.0 mi Calm Calm - 0.01 in Rain Rain
11:15 PM 46.8 °F - 44.8 °F 93% 29.92 in 4.0 mi Calm Calm - N/A Rain Light Rain
11:35 PM 46.8 °F - 45.0 °F 93% 29.92 in 10.0 mi Calm Calm - N/A Rain Rain
11:55 PM 46.6 °F - 44.8 °F 93% 29.88 in 2.0 mi SE 5.8 mph - N/A   Drizzle